This is the latest recevied weather packets stored in our database for station/object W8BUG. If no packets are shown the sender has not sent any weather packets the latest 1 day(s).
| Time | Temp. | Humidity | Pressure | Rain* | Wind** | Luminosity | Snow |
|---|---|---|---|---|---|---|---|
| 1778029617 | - | - | - | 0 mm | 0.89 m/s, 78° | - | - |
| 1778029314 | - | - | - | 0 mm | 0.89 m/s, 74° | - | - |
| 1778029011 | - | - | - | 0 mm | 1.34 m/s, 75° | - | - |
| 1778028708 | - | - | - | 0 mm | 1.34 m/s, 76° | - | - |
| 1778028404 | - | - | - | 0 mm | 1.34 m/s, 75° | - | - |
| 1778028101 | - | - | - | 0 mm | 0.89 m/s, 70° | - | - |
| 1778027797 | - | - | - | 0 mm | 0.89 m/s, 79° | - | - |
| 1778027494 | - | - | - | 0 mm | 0.89 m/s, 79° | - | - |
| 1778027190 | - | - | - | 0 mm | 2.24 m/s, 78° | - | - |
| 1778026886 | - | - | - | 0 mm | 1.34 m/s, 65° | - | - |
| 1778026582 | - | - | - | 0 mm | 0.89 m/s, 76° | - | - |
| 1778026279 | - | - | - | 0 mm | 1.34 m/s, 80° | - | - |
| 1778025977 | - | - | - | 0 mm | 0.45 m/s, 79° | - | - |
| 1778025674 | - | - | - | 0 mm | 0.89 m/s, 64° | - | - |
| 1778025372 | - | - | - | 0 mm | 1.79 m/s, 74° | - | - |
| 1778025069 | - | - | - | 0 mm | 0.45 m/s, 72° | - | - |
| 1778024765 | - | - | - | 0 mm | 1.34 m/s, 64° | - | - |
| 1778024462 | - | - | - | 0 mm | 1.79 m/s, 74° | - | - |
| 1778024160 | - | - | - | 0 mm | 0 m/s | - | - |
| 1778023857 | - | - | - | 0 mm | 0.89 m/s, 70° | - | - |
| 1778023555 | - | - | - | 0 mm | 0.45 m/s, 66° | - | - |
| 1778023252 | - | - | - | 0 mm | 2.68 m/s, 86° | - | - |
| 1778022948 | - | - | - | 0 mm | 1.79 m/s, 85° | - | - |
| 1778022648 | - | - | - | 0 mm | 1.34 m/s, 79° | - | - |
| 1778022344 | - | - | - | 0 mm | 0.89 m/s, 78° | - | - |
* Rain latest hour (hover to see other rain measurements)
** Current wind speed in m/s (hover to see current wind gust speed)